Time,TemperatureF,DewpointF,PressureIn,WindDirection,WindDirectionDegrees,WindSpeedMPH,WindSpeedGustMPH,Humidity,HourlyPrecipIn,Conditions,Clouds,dailyrainin,SoftwareType,DateUTC
2013-04-20 00:01:00,61.0,52.0,30.03,NNW,332,0.0,4.0,73,0.00,,,0.00,,2013-04-20 07:01:00,
2013-04-20 00:11:00,61.0,52.0,30.03,NNW,332,0.0,4.0,73,0.00,,,0.00,,2013-04-20 07:11:00,
2013-04-20 00:21:00,64.0,50.0,30.03,NNW,332,0.0,2.0,60,0.00,,,0.00,,2013-04-20 07:21:00,
2013-04-20 00:31:00,65.0,46.0,30.03,NNW,347,0.0,1.0,51,0.00,,,0.00,,2013-04-20 07:31:00,
2013-04-20 00:42:00,66.0,44.0,30.03,NNW,334,1.0,3.0,45,0.00,,,0.00,,2013-04-20 07:42:00,
2013-04-20 00:52:00,66.0,44.0,30.03,NNW,334,1.0,3.0,45,0.00,,,0.00,,2013-04-20 07:52:00,
2013-04-20 01:01:00,66.0,43.0,30.04,North,360,0.0,4.0,44,0.00,,,0.00,,2013-04-20 08:01:00,
2013-04-20 01:11:00,66.0,43.0,30.04,North,360,0.0,4.0,44,0.00,,,0.00,,2013-04-20 08:11:00,
2013-04-20 01:21:00,66.0,43.0,30.04,NNW,327,1.0,7.0,43,0.00,,,0.00,,2013-04-20 08:21:00,
2013-04-20 01:31:00,66.0,43.0,30.04,NNE,13,0.0,6.0,44,0.00,,,0.00,,2013-04-20 08:31:00,
2013-04-20 01:42:00,66.0,43.0,30.04,NNE,13,0.0,6.0,44,0.00,,,0.00,,2013-04-20 08:42:00,
2013-04-20 01:51:00,65.0,42.0,30.04,NW,315,2.0,7.0,43,0.00,,,0.00,,2013-04-20 08:51:00,
2013-04-20 02:01:00,65.0,43.0,30.04,North,5,1.0,6.0,44,0.00,,,0.00,,2013-04-20 09:01:00,
2013-04-20 02:11:00,65.0,43.0,30.04,North,5,1.0,6.0,44,0.00,,,0.00,,2013-04-20 09:11:00,
2013-04-20 02:21:00,65.0,43.0,30.04,NNW,340,2.0,7.0,45,0.00,,,0.00,,2013-04-20 09:21:00,
2013-04-20 02:32:00,64.0,42.0,30.04,North,355,1.0,8.0,45,0.00,,,0.00,,2013-04-20 09:32:00,
2013-04-20 02:43:00,63.0,42.0,30.04,NNW,329,1.0,4.0,47,0.00,,,0.00,,2013-04-20 09:43:00,
2013-04-20 02:52:00,63.0,42.0,30.04,NNW,329,1.0,4.0,47,0.00,,,0.00,,2013-04-20 09:52:00,
2013-04-20 03:02:00,63.0,43.0,30.04,North,11,1.0,4.0,48,0.00,,,0.00,,2013-04-20 10:02:00,
2013-04-20 03:12:00,63.0,43.0,30.04,North,11,1.0,4.0,48,0.00,,,0.00,,2013-04-20 10:12:00,
2013-04-20 03:22:00,62.0,43.0,30.04,NNW,347,0.0,4.0,50,0.00,,,0.00,,2013-04-20 10:22:00,
2013-04-20 03:33:00,61.0,44.0,30.04,North,349,0.0,4.0,53,0.00,,,0.00,,2013-04-20 10:33:00,
2013-04-20 03:42:00,61.0,43.0,30.04,NNW,335,1.0,5.0,51,0.00,,,0.00,,2013-04-20 10:42:00,
2013-04-20 03:52:00,61.0,43.0,30.04,NNW,335,1.0,5.0,51,0.00,,,0.00,,2013-04-20 10:52:00,
2013-04-20 04:02:00,60.0,41.0,30.04,NW,312,1.0,5.0,49,0.00,,,0.00,,2013-04-20 11:02:00,
2013-04-20 04:12:00,60.0,41.0,30.04,NNW,330,0.0,5.0,49,0.00,,,0.00,,2013-04-20 11:12:00,
2013-04-20 04:22:00,60.0,41.0,30.04,NNW,330,0.0,5.0,49,0.00,,,0.00,,2013-04-20 11:22:00,
2013-04-20 04:31:00,59.0,40.0,30.05,North,5,0.0,3.0,50,0.00,,,0.00,,2013-04-20 11:31:00,
2013-04-20 04:42:00,59.0,40.0,30.05,North,5,0.0,3.0,50,0.00,,,0.00,,2013-04-20 11:42:00,
2013-04-20 04:52:00,59.0,41.0,30.05,NNW,340,0.0,2.0,51,0.00,,,0.00,,2013-04-20 11:52:00,
2013-04-20 05:02:00,59.0,40.0,30.05,NW,314,0.0,5.0,50,0.00,,,0.00,,2013-04-20 12:02:00,
2013-04-20 05:11:00,59.0,40.0,30.05,NW,314,0.0,5.0,50,0.00,,,0.00,,2013-04-20 12:11:00,
2013-04-20 05:22:00,59.0,40.0,30.06,NNW,342,2.0,5.0,50,0.00,,,0.00,,2013-04-20 12:22:00,
2013-04-20 05:32:00,58.0,39.0,30.06,NNW,333,1.0,5.0,50,0.00,,,0.00,,2013-04-20 12:32:00,
2013-04-20 05:41:00,58.0,39.0,30.06,NNW,333,1.0,5.0,50,0.00,,,0.00,,2013-04-20 12:41:00,
2013-04-20 05:52:00,58.0,39.0,30.06,NW,321,1.0,4.0,50,0.00,,,0.00,,2013-04-20 12:52:00,
2013-04-20 06:02:00,58.0,40.0,30.06,North,355,1.0,5.0,51,0.00,,,0.00,,2013-04-20 13:02:00,
2013-04-20 06:11:00,58.0,40.0,30.06,North,355,1.0,5.0,51,0.00,,,0.00,,2013-04-20 13:11:00,
2013-04-20 06:21:00,58.0,40.0,30.06,North,355,1.0,5.0,51,0.00,,,0.00,,2013-04-20 13:21:00,
2013-04-20 06:31:00,57.0,39.0,30.06,NNW,334,1.0,5.0,51,0.00,,,0.00,,2013-04-20 13:31:00,
2013-04-20 06:41:00,57.0,40.0,30.06,NW,323,0.0,5.0,52,0.00,,,0.00,,2013-04-20 13:41:00,
2013-04-20 06:52:00,57.0,40.0,30.06,NW,323,0.0,5.0,52,0.00,,,0.00,,2013-04-20 13:52:00,
2013-04-20 07:02:00,57.0,40.0,30.06,NW,319,1.0,4.0,52,0.00,,,0.00,,2013-04-20 14:02:00,
2013-04-20 07:11:00,57.0,40.0,30.06,NNW,347,1.0,5.0,52,0.00,,,0.00,,2013-04-20 14:11:00,
2013-04-20 07:21:00,57.0,40.0,30.06,NNW,347,1.0,5.0,52,0.00,,,0.00,,2013-04-20 14:21:00,
2013-04-20 07:31:00,56.0,40.0,30.06,NNW,346,1.0,3.0,54,0.00,,,0.00,,2013-04-20 14:31:00,
2013-04-20 07:42:00,56.0,40.0,30.06,NNW,346,1.0,3.0,54,0.00,,,0.00,,2013-04-20 14:42:00,
2013-04-20 07:51:00,56.0,40.0,30.07,NNW,330,1.0,5.0,55,0.00,,,0.00,,2013-04-20 14:51:00,
2013-04-20 08:01:00,57.0,41.0,30.07,North,360,1.0,5.0,54,0.00,,,0.00,,2013-04-20 15:01:00,
2013-04-20 08:11:00,57.0,41.0,30.07,North,360,1.0,5.0,54,0.00,,,0.00,,2013-04-20 15:11:00,
2013-04-20 08:21:00,58.0,41.0,30.08,NW,323,2.0,6.0,54,0.00,,,0.00,,2013-04-20 15:21:00,
2013-04-20 08:33:00,58.0,41.0,30.08,NNW,346,3.0,7.0,53,0.00,,,0.00,,2013-04-20 15:33:00,
2013-04-20 08:43:00,59.0,41.0,30.07,NNW,329,2.0,6.0,52,0.00,,,0.00,,2013-04-20 15:43:00,
2013-04-20 08:53:00,59.0,41.0,30.07,NNW,329,2.0,6.0,52,0.00,,,0.00,,2013-04-20 15:53:00,
2013-04-20 09:03:00,60.0,41.0,30.07,NW,308,2.0,10.0,49,0.00,,,0.00,,2013-04-20 16:03:00,
2013-04-20 09:12:00,61.0,41.0,30.07,NNW,333,3.0,13.0,47,0.00,,,0.00,,2013-04-20 16:12:00,
2013-04-20 09:23:00,61.0,41.0,30.07,NNW,333,3.0,13.0,47,0.00,,,0.00,,2013-04-20 16:23:00,
2013-04-20 09:32:00,62.0,41.0,30.07,NW,318,2.0,10.0,46,0.00,,,0.00,,2013-04-20 16:32:00,
2013-04-20 09:41:00,64.0,42.0,30.07,NNW,338,3.0,8.0,44,0.00,,,0.00,,2013-04-20 16:41:00,
2013-04-20 09:52:00,64.0,42.0,30.07,NNW,338,3.0,8.0,44,0.00,,,0.00,,2013-04-20 16:52:00,
2013-04-20 10:02:00,65.0,43.0,30.06,NW,325,1.0,10.0,44,0.00,,,0.00,,2013-04-20 17:02:00,
2013-04-20 10:11:00,66.0,43.0,30.06,NNW,338,1.0,9.0,44,0.00,,,0.00,,2013-04-20 17:11:00,
2013-04-20 10:22:00,66.0,43.0,30.06,NNW,338,1.0,9.0,44,0.00,,,0.00,,2013-04-20 17:22:00,
2013-04-20 10:32:00,68.0,42.0,30.06,North,5,2.0,8.0,39,0.00,,,0.00,,2013-04-20 17:32:00,
2013-04-20 10:41:00,68.0,42.0,30.06,North,5,2.0,8.0,39,0.00,,,0.00,,2013-04-20 17:41:00,
2013-04-20 10:52:00,69.0,43.0,30.06,North,355,2.0,7.0,39,0.00,,,0.00,,2013-04-20 17:52:00,
2013-04-20 11:02:00,70.0,43.0,30.05,NNE,32,1.0,7.0,38,0.00,,,0.00,,2013-04-20 18:02:00,
2013-04-20 11:12:00,71.0,44.0,30.04,North,5,3.0,10.0,38,0.00,,,0.00,,2013-04-20 18:12:00,
2013-04-20 11:22:00,71.0,44.0,30.04,North,5,3.0,10.0,38,0.00,,,0.00,,2013-04-20 18:22:00,
2013-04-20 11:32:00,71.0,43.0,30.04,NNW,345,3.0,11.0,37,0.00,,,0.00,,2013-04-20 18:32:00,
2013-04-20 11:41:00,71.0,43.0,30.04,NNW,345,3.0,11.0,37,0.00,,,0.00,,2013-04-20 18:41:00,
2013-04-20 11:52:00,72.0,43.0,30.04,NNW,327,4.0,10.0,35,0.00,,,0.00,,2013-04-20 18:52:00,
2013-04-20 12:01:00,73.0,42.0,30.03,NNW,331,2.0,10.0,33,0.00,,,0.00,,2013-04-20 19:01:00,
2013-04-20 12:11:00,75.0,42.0,30.02,NW,321,2.0,7.0,31,0.00,,,0.00,,2013-04-20 19:11:00,
2013-04-20 12:21:00,75.0,42.0,30.02,NW,321,2.0,7.0,31,0.00,,,0.00,,2013-04-20 19:21:00,
2013-04-20 12:31:00,75.0,43.0,30.02,NNW,333,3.0,7.0,32,0.00,,,0.00,,2013-04-20 19:31:00,
2013-04-20 12:41:00,76.0,41.0,30.01,NNW,343,1.0,9.0,29,0.00,,,0.00,,2013-04-20 19:41:00,
2013-04-20 12:52:00,76.0,41.0,30.01,NNW,343,1.0,9.0,29,0.00,,,0.00,,2013-04-20 19:52:00,
2013-04-20 13:01:00,76.0,41.0,30.01,NNW,345,3.0,8.0,28,0.00,,,0.00,,2013-04-20 20:01:00,
2013-04-20 13:11:00,77.0,41.0,30.00,NNE,12,2.0,8.0,28,0.00,,,0.00,,2013-04-20 20:11:00,
2013-04-20 13:21:00,77.0,41.0,30.00,NNE,12,2.0,8.0,28,0.00,,,0.00,,2013-04-20 20:21:00,
2013-04-20 13:32:00,78.0,41.0,30.00,NNW,327,2.0,5.0,27,0.00,,,0.00,,2013-04-20 20:32:00,
2013-04-20 13:42:00,78.0,41.0,30.00,NNW,327,2.0,5.0,27,0.00,,,0.00,,2013-04-20 20:42:00,
2013-04-20 13:52:00,78.0,40.0,29.98,NW,318,2.0,10.0,26,0.00,,,0.00,,2013-04-20 20:52:00,
2013-04-20 14:01:00,78.0,40.0,29.98,NW,318,2.0,10.0,26,0.00,,,0.00,,2013-04-20 21:01:00,
2013-04-20 14:12:00,79.0,38.0,29.98,NNE,27,3.0,12.0,23,0.00,,,0.00,,2013-04-20 21:12:00,
2013-04-20 14:21:00,79.0,38.0,29.98,NNE,27,3.0,12.0,23,0.00,,,0.00,,2013-04-20 21:21:00,
2013-04-20 14:32:00,79.0,38.0,29.98,NNW,346,3.0,8.0,23,0.00,,,0.00,,2013-04-20 21:32:00,
2013-04-20 14:43:00,79.0,38.0,29.98,NNW,346,3.0,8.0,23,0.00,,,0.00,,2013-04-20 21:43:00,
2013-04-20 14:52:00,80.0,37.0,29.97,NW,324,3.0,8.0,21,0.00,,,0.00,,2013-04-20 21:52:00,
2013-04-20 15:02:00,80.0,34.0,29.96,NNW,339,1.0,10.0,19,0.00,,,0.00,,2013-04-20 22:02:00,
2013-04-20 15:12:00,81.0,31.0,29.96,NNW,329,1.0,11.0,16,0.00,,,0.00,,2013-04-20 22:12:00,
2013-04-20 15:22:00,81.0,31.0,29.96,NNW,329,1.0,11.0,16,0.00,,,0.00,,2013-04-20 22:22:00,
2013-04-20 15:32:00,81.0,33.0,29.96,NNE,30,2.0,9.0,18,0.00,,,0.00,,2013-04-20 22:32:00,
2013-04-20 15:42:00,81.0,33.0,29.96,NNE,30,2.0,9.0,18,0.00,,,0.00,,2013-04-20 22:42:00,
2013-04-20 15:52:00,81.0,32.0,29.95,NNW,330,2.0,9.0,17,0.00,,,0.00,,2013-04-20 22:52:00,
2013-04-20 16:02:00,82.0,33.0,29.95,NNW,334,2.0,6.0,17,0.00,,,0.00,,2013-04-20 23:02:00,
2013-04-20 16:11:00,82.0,33.0,29.94,NNW,343,1.0,5.0,17,0.00,,,0.00,,2013-04-20 23:11:00,
2013-04-20 16:22:00,82.0,33.0,29.94,NNW,343,1.0,5.0,17,0.00,,,0.00,,2013-04-20 23:22:00,
2013-04-20 16:32:00,82.0,28.0,29.94,NNW,328,3.0,8.0,14,0.00,,,0.00,,2013-04-20 23:32:00,
2013-04-20 16:41:00,82.0,28.0,29.94,NNW,328,3.0,8.0,14,0.00,,,0.00,,2013-04-20 23:41:00,
2013-04-20 16:52:00,82.0,30.0,29.93,NNW,338,3.0,8.0,15,0.00,,,0.00,,2013-04-20 23:52:00,
2013-04-20 17:01:00,82.0,30.0,29.93,NNW,333,2.0,6.0,15,0.00,,,0.00,,2013-04-21 00:01:00,
2013-04-20 17:11:00,82.0,30.0,29.93,NNW,333,2.0,6.0,15,0.00,,,0.00,,2013-04-21 00:11:00,
2013-04-20 17:21:00,82.0,28.0,29.93,NNW,340,1.0,5.0,14,0.00,,,0.00,,2013-04-21 00:21:00,
2013-04-20 17:31:00,82.0,28.0,29.93,NW,313,2.0,5.0,14,0.00,,,0.00,,2013-04-21 00:31:00,
2013-04-20 17:41:00,82.0,28.0,29.93,NW,313,2.0,5.0,14,0.00,,,0.00,,2013-04-21 00:41:00,
2013-04-20 17:51:00,82.0,28.0,29.92,NNW,340,2.0,7.0,14,0.00,,,0.00,,2013-04-21 00:51:00,
2013-04-20 18:01:00,82.0,30.0,29.92,NW,311,1.0,5.0,15,0.00,,,0.00,,2013-04-21 01:01:00,
2013-04-20 18:11:00,82.0,30.0,29.92,NW,311,1.0,5.0,15,0.00,,,0.00,,2013-04-21 01:11:00,
2013-04-20 18:21:00,81.0,29.0,29.92,NW,321,0.0,6.0,15,0.00,,,0.00,,2013-04-21 01:21:00,
2013-04-20 18:31:00,81.0,27.0,29.92,NNW,346,1.0,6.0,14,0.00,,,0.00,,2013-04-21 01:31:00,
2013-04-20 18:41:00,81.0,27.0,29.92,NNW,346,1.0,6.0,14,0.00,,,0.00,,2013-04-21 01:41:00,
2013-04-20 18:52:00,81.0,29.0,29.92,NNW,344,1.0,5.0,15,0.00,,,0.00,,2013-04-21 01:52:00,
2013-04-20 19:01:00,81.0,29.0,29.92,NNW,348,0.0,4.0,15,0.00,,,0.00,,2013-04-21 02:01:00,
2013-04-20 19:11:00,81.0,29.0,29.92,NNW,348,0.0,4.0,15,0.00,,,0.00,,2013-04-21 02:11:00,
2013-04-20 19:21:00,80.0,28.0,29.92,NNW,342,0.0,4.0,15,0.00,,,0.00,,2013-04-21 02:21:00,
2013-04-20 19:31:00,78.0,35.0,29.92,NNW,342,0.0,1.0,21,0.00,,,0.00,,2013-04-21 02:31:00,
2013-04-20 19:41:00,78.0,35.0,29.92,NNW,342,0.0,1.0,21,0.00,,,0.00,,2013-04-21 02:41:00,
2013-04-20 19:52:00,77.0,34.0,29.92,NNW,342,0.0,0.0,21,0.00,,,0.00,,2013-04-21 02:52:00,
2013-04-20 20:01:00,75.0,36.0,29.92,NNW,342,0.0,0.0,24,0.00,,,0.00,,2013-04-21 03:01:00,
2013-04-20 20:21:00,71.0,44.0,29.93,West,261,3.0,6.0,38,0.00,,,0.00,,2013-04-21 03:21:00,
2013-04-20 20:32:00,69.0,48.0,29.93,WSW,257,1.0,5.0,47,0.00,,,0.00,,2013-04-21 03:32:00,
2013-04-20 20:52:00,69.0,48.0,29.94,West,263,0.0,6.0,47,0.00,,,0.00,,2013-04-21 03:52:00,
2013-04-20 21:02:00,68.0,46.0,29.95,West,262,1.0,4.0,46,0.00,,,0.00,,2013-04-21 04:02:00,
2013-04-20 21:12:00,66.0,46.0,29.95,West,262,0.0,3.0,49,0.00,,,0.00,,2013-04-21 04:12:00,
2013-04-20 21:22:00,66.0,46.0,29.95,West,262,0.0,3.0,49,0.00,,,0.00,,2013-04-21 04:22:00,
2013-04-20 21:32:00,66.0,47.0,29.96,West,262,0.0,3.0,50,0.00,,,0.00,,2013-04-21 04:32:00,
2013-04-20 21:42:00,66.0,47.0,29.96,West,262,0.0,3.0,50,0.00,,,0.00,,2013-04-21 04:42:00,
2013-04-20 21:53:00,66.0,47.0,29.96,West,262,0.0,3.0,50,0.00,,,0.00,,2013-04-21 04:53:00,
2013-04-20 22:02:00,64.0,45.0,29.96,West,262,0.0,3.0,51,0.00,,,0.00,,2013-04-21 05:02:00,
2013-04-20 22:12:00,64.0,45.0,29.96,West,262,0.0,3.0,51,0.00,,,0.00,,2013-04-21 05:12:00,
2013-04-20 22:21:00,64.0,45.0,29.96,West,262,0.0,2.0,51,0.00,,,0.00,,2013-04-21 05:21:00,
2013-04-20 22:32:00,63.0,45.0,29.96,West,262,0.0,2.0,51,0.00,,,0.00,,2013-04-21 05:32:00,
2013-04-20 22:42:00,63.0,45.0,29.96,West,262,0.0,2.0,51,0.00,,,0.00,,2013-04-21 05:42:00,
2013-04-20 22:52:00,61.0,44.0,29.96,West,262,0.0,0.0,54,0.00,,,0.00,,2013-04-21 05:52:00,
2013-04-20 23:01:00,60.0,44.0,29.96,West,262,0.0,0.0,55,0.00,,,0.00,,2013-04-21 06:01:00,
2013-04-20 23:12:00,59.0,44.0,29.96,West,262,0.0,0.0,58,0.00,,,0.00,,2013-04-21 06:12:00,
2013-04-20 23:21:00,59.0,44.0,29.96,West,262,0.0,0.0,58,0.00,,,0.00,,2013-04-21 06:21:00,
2013-04-20 23:32:00,58.0,44.0,29.96,West,262,0.0,0.0,60,0.00,,,0.00,,2013-04-21 06:32:00,
2013-04-20 23:42:00,58.0,44.0,29.96,West,262,0.0,0.0,60,0.00,,,0.00,,2013-04-21 06:42:00,
2013-04-20 23:51:00,57.0,44.0,29.96,West,262,0.0,0.0,62,0.00,,,0.00,,2013-04-21 06:51:00,